Home   Weather   Liberec   Past weeks

Flag for Czech Republic Past Weather in Liberec, Czech Republic — Yesterday and Last 2 Weeks

Now
64 °F

Sunny.


Feels Like: 64 °F
Forecast: 54 / 76 °F
Wind: 3 mph from Southeast

Location: Liberec

Current Time: May 28, 2017 at 8:34:48 am

Latest Report: May 28, 2017 at 8:00 am


Visibility: 19 mi

Pressure: 30.22 "Hg

Humidity: 49%

Dew Point: 44 °F

Location of LiberecLocation

Past Weather in Liberec — Graph

°F

Liberec Temperature Yesterday

Maximum temperature yesterday: 73 °F (at 4:00 pm)
Minimum temperature yesterday: 47 °F (at 5:00 am)
Average temperature yesterday: 62 °F

High & Low Weather Summary for the Past Weeks

 TemperatureHumidityPressure
High77 °F (May 19, 4:00 pm)99% (May 15, 6:00 am)30.46 "Hg (May 15, 6:00 am)
Low42 °F (May 16, 5:00 am)34% (May 19, 6:00 pm)29.72 "Hg (May 19, 7:00 pm)
Average58 °F65%30.13 "Hg
* Reported May 13 7:00 am — May 28 7:00 am, Liberec. Weather by CustomWeather, © 2017

Note: Actual official high and low records may vary slightly from our data, if they occured in-between our weather recording intervals... More about our weather records

Advertising

Liberec Weather History for the Previous 24 Hours

Scroll right to see more
 ConditionsComfort  
Time TempWeatherWind HumidityBarometerVisibility
7:00 am
Sun, May 28
60 °FRefreshingly cool.2 mph56%30.23 "Hg12 mi
6:00 am56 °FCool.2 mph61%30.24 "Hg12 mi
5:00 am56 °FRefreshingly cool.2 mph58%30.24 "Hg12 mi
4:00 am58 °FRefreshingly cool.3 mph57%30.23 "Hg12 mi
3:00 am57 °FRefreshingly cool.2 mph60%30.24 "Hg12 mi
2:00 am58 °FRefreshingly cool.3 mph59%30.24 "Hg12 mi
1:00 am59 °FRefreshingly cool.3 mph57%30.23 "Hg12 mi
12:00 am58 °FCool.3 mph60%30.23 "Hg12 mi
11:00 pm
Sat, May 27
60 °FRefreshingly cool.2 mph52%30.22 "Hg12 mi
10:00 pm61 °FClear.2 mph56%30.21 "Hg31 mi
9:00 pm61 °FClear.1 mph55%30.19 "Hg31 mi
8:00 pm68 °FPassing clouds.3 mph49%30.16 "Hg31 mi
7:00 pm72 °FMild.2 mph37%30.15 "Hg12 mi
6:00 pm72 °FMild.2 mph37%30.15 "Hg12 mi
5:00 pm73 °FPassing clouds.3 mph36%30.15 "Hg31 mi
4:00 pm73 °FPassing clouds.5 mph36%30.16 "Hg31 mi
3:00 pm72 °FPassing clouds.6 mph39%30.17 "Hg31 mi
2:00 pm71 °FPassing clouds.3 mph39%30.18 "Hg31 mi
1:00 pm70 °FPassing clouds.3 mph39%30.19 "Hg31 mi
12:00 pm70 °FPassing clouds.3 mph39%30.19 "Hg31 mi
11:00 am67 °FPassing clouds.3 mph44%30.20 "Hg28 mi
10:00 am66 °FPassing clouds.2 mph58%30.21 "Hg19 mi
9:00 am61 °FSunny.3 mph70%30.22 "Hg17 mi
8:00 am56 °FSunny.2 mph79%30.22 "Hg16 mi
Weather by CustomWeather, © 2017

See weather overviewHow to use our weather pages